| time (UTC) | temp F | wind direction | speed knots | gust knots | rain 1hr in | rain 24hr in | rain mn in | humidity % | barometer mb |
| 20260906010530 | 64 | 296 | 7.0 | 12.2 | 0.00 | 0.01 | 0.00 | 65 | 1021.0 |
| 20260906010353 | 65 | 276 | 6.1 | 11.3 | 0.00 | 0.01 | 0.00 | 65 | 1020.8 |
| 20260906010054 | 64 | 273 | 6.1 | 10.4 | 0.00 | 0.01 | 0.00 | 64 | 1021.0 |
| 20260906005529 | 64 | 277 | 6.1 | 12.2 | 0.00 | 0.01 | 0.00 | 65 | 1021.1 |
| 20260906005350 | 65 | 286 | 5.2 | 11.3 | 0.00 | 0.01 | 0.00 | 64 | 1020.8 |
| 20260906005029 | 64 | 271 | 6.1 | 14.8 | 0.00 | 0.01 | 0.00 | 64 | 1021.1 |
| 20260906004848 | 65 | 258 | 6.1 | 14.8 | 0.00 | 0.01 | 0.00 | 64 | 1020.7 |
| 20260906004548 | 65 | 260 | 4.3 | 14.8 | 0.00 | 0.01 | 0.00 | 64 | 1021.0 |
| 20260906004346 | 65 | 289 | 6.1 | 14.8 | 0.00 | 0.01 | 0.00 | 65 | 1020.7 |
| 20260906004033 | 64 | 283 | 6.1 | 14.8 | 0.00 | 0.01 | 0.00 | 64 | 1020.9 |
| 20260906003528 | 65 | 269 | 4.3 | 7.8 | 0.00 | 0.01 | 0.00 | 65 | 1020.8 |
| 20260906003343 | 65 | 244 | 4.3 | 7.8 | 0.00 | 0.01 | 0.00 | 64 | 1020.6 |
| 20260906003054 | 65 | 280 | 4.3 | 9.6 | 0.00 | 0.01 | 0.00 | 63 | 1020.8 |
| 20260906002845 | 65 | 282 | 4.3 | 9.6 | 0.00 | 0.01 | 0.00 | 63 | 1020.5 |
| 20260906002529 | 65 | 261 | 2.6 | 9.6 | 0.00 | 0.01 | 0.00 | 62 | 1020.8 |
| 20260906002339 | 65 | 268 | 3.5 | 9.6 | 0.00 | 0.01 | 0.00 | 63 | 1020.4 |
| 20260906002029 | 65 | 224 | 3.5 | 10.4 | 0.00 | 0.01 | 0.00 | 63 | 1020.6 |
| 20260906001838 | 65 | 266 | 3.5 | 9.6 | 0.00 | 0.01 | 0.00 | 64 | 1020.3 |
| 20260906001554 | 65 | 286 | 4.3 | 10.4 | 0.00 | 0.01 | 0.00 | 63 | 1020.5 |
| 20260906001337 | 65 | 299 | 5.2 | 9.6 | 0.00 | 0.01 | 0.00 | 64 | 1020.2 |
| 20260906001028 | 65 | 269 | 6.1 | 10.4 | 0.00 | 0.01 | 0.00 | 64 | 1020.6 |
| 20260906000835 | 65 | 284 | 5.2 | 7.8 | 0.00 | 0.01 | 0.00 | 64 | 1020.4 |
| 20260906000529 | 65 | 316 | 4.3 | 7.8 | 0.00 | 0.01 | 0.00 | 62 | 1020.7 |
| 20260906000333 | 65 | 306 | 5.2 | 7.8 | 0.00 | 0.01 | 0.00 | 63 | 1020.5 |
| 20260906000053 | 65 | 247 | 4.3 | 7.8 | 0.00 | 0.01 | 0.00 | 62 | 1020.7 |
| 20260905235832 | 65 | 273 | 4.3 | 7.8 | 0.00 | 0.01 | 0.00 | 62 | 1020.5 |
| 20260905235530 | 65 | 259 | 4.3 | 8.7 | 0.00 | 0.01 | 0.00 | 62 | 1020.6 |
| 20260905235330 | 65 | 267 | 3.5 | 8.7 | 0.00 | 0.01 | 0.00 | 62 | 1020.4 |
| 20260905235028 | 65 | 290 | 4.3 | 9.6 | 0.00 | 0.01 | 0.00 | 62 | 1020.6 |
| 20260905234828 | 66 | 311 | 4.3 | 8.7 | 0.00 | 0.01 | 0.00 | 62 | 1020.4 |
| 20260905234547 | 65 | 271 | 3.5 | 9.6 | 0.00 | 0.01 | 0.00 | 61 | 1020.6 |
| 20260905234326 | 66 | 286 | 3.5 | 8.7 | 0.00 | 0.01 | 0.00 | 61 | 1020.3 |
| 20260905234030 | 65 | 266 | 2.6 | 9.6 | 0.00 | 0.01 | 0.00 | 61 | 1020.6 |
| 20260905233825 | 66 | 267 | 3.5 | 9.6 | 0.00 | 0.01 | 0.00 | 61 | 1020.4 |
| 20260905233529 | 65 | 258 | 4.3 | 9.6 | 0.00 | 0.01 | 0.00 | 61 | 1020.6 |
| 20260905233327 | 66 | 252 | 3.5 | 9.6 | 0.00 | 0.01 | 0.00 | 61 | 1020.3 |
| 20260905233056 | 65 | 273 | 3.5 | 7.8 | 0.00 | 0.01 | 0.00 | 61 | 1020.6 |
| 20260905232529 | 65 | 267 | 2.6 | 7.0 | 0.00 | 0.01 | 0.00 | 62 | 1020.5 |
| 20260905232029 | 65 | 257 | 2.6 | 8.7 | 0.00 | 0.01 | 0.00 | 62 | 1020.6 |
| 20260905231818 | 66 | 254 | 3.5 | 8.7 | 0.00 | 0.01 | 0.00 | 62 | 1020.3 |
| 20260905231552 | 65 | 278 | 3.5 | 8.7 | 0.00 | 0.01 | 0.00 | 62 | 1020.5 |
| 20260905231316 | 66 | 278 | 3.5 | 8.7 | 0.00 | 0.01 | 0.00 | 62 | 1020.2 |
| 20260905231028 | 65 | 272 | 4.3 | 8.7 | 0.00 | 0.01 | 0.00 | 61 | 1020.4 |
| 20260905230528 | 65 | 246 | 3.5 | 7.8 | 0.00 | 0.01 | 0.00 | 62 | 1020.3 |
| 20260905230313 | 66 | 290 | 4.3 | 7.8 | 0.00 | 0.01 | 0.00 | 62 | 1020.3 |
| 20260905230056 | 65 | 259 | 3.5 | 7.8 | 0.00 | 0.01 | 0.00 | 61 | 1020.5 |
| 20260905225812 | 66 | 287 | 4.3 | 7.8 | 0.00 | 0.01 | 0.00 | 62 | 1020.3 |
| 20260905225528 | 66 | 272 | 4.3 | 8.7 | 0.00 | 0.01 | 0.00 | 61 | 1020.4 |
| 20260905225310 | 66 | 267 | 3.5 | 8.7 | 0.00 | 0.01 | 0.00 | 61 | 1020.2 |
| 20260905225028 | 66 | 240 | 4.3 | 9.6 | 0.00 | 0.01 | 0.00 | 60 | 1020.5 |
| 20260905224809 | 66 | 272 | 4.3 | 8.7 | 0.00 | 0.01 | 0.00 | 61 | 1020.1 |
| 20260905224605 | 66 | 282 | 5.2 | 9.6 | 0.00 | 0.01 | 0.00 | 61 | 1020.3 |
| 20260905224307 | 66 | 266 | 6.1 | 8.7 | 0.00 | 0.01 | 0.00 | 61 | 1020.0 |
| 20260905224028 | 66 | 242 | 5.2 | 10.4 | 0.00 | 0.01 | 0.00 | 61 | 1020.3 |
| 20260905223805 | 66 | 296 | 4.3 | 9.6 | 0.00 | 0.01 | 0.00 | 61 | 1020.0 |
| 20260905223527 | 66 | 282 | 5.2 | 10.4 | 0.00 | 0.01 | 0.00 | 61 | 1020.3 |
| 20260905223308 | 66 | 279 | 6.1 | 9.6 | 0.00 | 0.01 | 0.00 | 61 | 1020.1 |
| 20260905223050 | 66 | 291 | 4.3 | 11.3 | 0.00 | 0.01 | 0.00 | 61 | 1020.3 |
| 20260905222802 | 66 | 300 | 5.2 | 11.3 | 0.00 | 0.01 | 0.00 | 62 | 1020.1 |
| 20260905222529 | 66 | 265 | 3.5 | 12.2 | 0.00 | 0.01 | 0.00 | 61 | 1020.4 |
| 20260905222300 | 66 | 271 | 3.5 | 11.3 | 0.00 | 0.01 | 0.00 | 62 | 1020.0 |
| 20260905222028 | 66 | 271 | 5.2 | 12.2 | 0.00 | 0.01 | 0.00 | 61 | 1020.3 |
| 20260905221758 | 66 | 307 | 5.2 | 11.3 | 0.00 | 0.01 | 0.00 | 62 | 1020.1 |
| 20260905221557 | 66 | 247 | 6.1 | 11.3 | 0.00 | 0.01 | 0.00 | 61 | 1020.4 |
| 20260905221256 | 66 | 252 | 6.1 | 9.6 | 0.00 | 0.01 | 0.00 | 62 | 1020.2 |
| 20260905221033 | 66 | 273 | 3.5 | 12.2 | 0.00 | 0.01 | 0.00 | 61 | 1020.4 |
| 20260905220755 | 66 | 247 | 5.2 | 12.2 | 0.00 | 0.01 | 0.00 | 62 | 1020.2 |
| 20260905220529 | 66 | 279 | 6.1 | 12.2 | 0.00 | 0.01 | 0.00 | 61 | 1020.4 |
| 20260905220248 | 66 | 288 | 7.0 | 12.2 | 0.00 | 0.01 | 0.00 | 61 | 1020.1 |
| 20260905220107 | 66 | 285 | 5.2 | 11.3 | 0.00 | 0.01 | 0.00 | 61 | 1020.4 |
| 20260905215747 | 66 | 271 | 6.1 | 10.4 | 0.00 | 0.01 | 0.01 | 61 | 1020.1 |
| 20260905215528 | 66 | 268 | 5.2 | 11.3 | 0.00 | 0.01 | 0.01 | 61 | 1020.3 |
| 20260905215245 | 66 | 246 | 5.2 | 10.4 | 0.00 | 0.01 | 0.01 | 61 | 1020.1 |
| 20260905215029 | 65 | 281 | 4.3 | 10.4 | 0.00 | 0.01 | 0.01 | 61 | 1020.3 |
| 20260905214743 | 66 | 203 | 6.1 | 10.4 | 0.00 | 0.01 | 0.01 | 61 | 1020.0 |
| 20260905214550 | 65 | 239 | 3.5 | 10.4 | 0.00 | 0.01 | 0.01 | 61 | 1020.2 |
| 20260905214241 | 66 | 277 | 4.3 | 9.6 | 0.00 | 0.01 | 0.01 | 61 | 1019.9 |
| 20260905214030 | 65 | 264 | 4.3 | 10.4 | 0.00 | 0.01 | 0.01 | 60 | 1020.2 |
| 20260905213740 | 66 | 261 | 4.3 | 9.6 | 0.00 | 0.01 | 0.01 | 61 | 1019.9 |
| 20260905213531 | 65 | 255 | 3.5 | 9.6 | 0.00 | 0.01 | 0.01 | 60 | 1020.1 |
| 20260905213238 | 66 | 250 | 3.5 | 9.6 | 0.00 | 0.01 | 0.01 | 61 | 1019.9 |
| 20260905213052 | 65 | 264 | 2.6 | 9.6 | 0.00 | 0.01 | 0.01 | 60 | 1020.2 |
| 20260905212740 | 66 | 280 | 2.6 | 9.6 | 0.00 | 0.01 | 0.01 | 61 | 1019.9 |
| 20260905212532 | 65 | 257 | 4.3 | 9.6 | 0.00 | 0.01 | 0.01 | 61 | 1020.1 |
| 20260905212235 | 65 | 251 | 3.5 | 7.8 | 0.00 | 0.01 | 0.01 | 61 | 1019.9 |
| 20260905212029 | 65 | 283 | 2.6 | 7.8 | 0.00 | 0.01 | 0.01 | 61 | 1020.1 |
| 20260905211732 | 65 | 252 | 2.6 | 7.0 | 0.00 | 0.01 | 0.01 | 62 | 1019.9 |
| 20260905211603 | 65 | 250 | 3.5 | 7.0 | 0.00 | 0.01 | 0.01 | 61 | 1020.0 |
| 20260905211233 | 65 | 250 | 2.6 | 6.1 | 0.00 | 0.01 | 0.01 | 61 | 1019.7 |
| 20260905211028 | 65 | 232 | 1.7 | 5.2 | 0.00 | 0.01 | 0.01 | 60 | 1019.9 |
| 20260905210724 | 66 | 229 | 2.6 | 4.3 | 0.00 | 0.01 | 0.01 | 60 | 1019.7 |
| 20260905210529 | 66 | 212 | 1.7 | 3.5 | 0.00 | 0.01 | 0.01 | 59 | 1019.9 |
| 20260905210222 | 67 | 220 | 1.7 | 3.5 | 0.00 | 0.01 | 0.01 | 59 | 1019.6 |
| 20260905210104 | 66 | 229 | 1.7 | 4.3 | 0.00 | 0.01 | 0.01 | 58 | 1019.9 |
| 20260905205721 | 67 | 209 | 1.7 | 4.3 | 0.00 | 0.01 | 0.01 | 58 | 1019.5 |
| 20260905205528 | 67 | 225 | 1.7 | 4.3 | 0.00 | 0.01 | 0.01 | 57 | 1019.8 |
| 20260905205220 | 68 | 230 | 1.7 | 4.3 | 0.00 | 0.01 | 0.01 | 57 | 1019.5 |
| 20260905205029 | 67 | 192 | 2.6 | 6.1 | 0.00 | 0.01 | 0.01 | 57 | 1019.8 |
| 20260905204718 | 68 | 234 | 1.7 | 5.2 | 0.00 | 0.01 | 0.01 | 57 | 1019.5 |
| 20260905204557 | 67 | 286 | 1.7 | 7.8 | 0.00 | 0.01 | 0.01 | 57 | 1019.8 |
| 20260905204216 | 68 | 222 | 2.6 | 7.8 | 0.00 | 0.01 | 0.01 | 57 | 1019.5 |
| 20260905204029 | 68 | 251 | 2.6 | 7.8 | 0.00 | 0.01 | 0.01 | 57 | 1019.8 |
| 20260905203714 | 68 | 273 | 3.5 | 7.8 | 0.00 | 0.01 | 0.01 | 58 | 1019.5 |
| 20260905203529 | 68 | 276 | 3.5 | 10.4 | 0.00 | 0.01 | 0.01 | 57 | 1019.8 |
| 20260905203214 | 68 | 259 | 4.3 | 10.4 | 0.00 | 0.01 | 0.01 | 58 | 1019.3 |
| 20260905203111 | 68 | 291 | 3.5 | 10.4 | 0.00 | 0.01 | 0.01 | 58 | 1019.7 |
| 20260905202711 | 68 | 289 | 5.2 | 10.4 | 0.00 | 0.01 | 0.01 | 58 | 1019.4 |
| 20260905202531 | 68 | 271 | 5.2 | 12.2 | 0.00 | 0.01 | 0.01 | 58 | 1019.7 |
| 20260905202213 | 68 | 287 | 6.1 | 12.2 | 0.00 | 0.01 | 0.01 | 60 | 1019.4 |
| 20260905202028 | 68 | 300 | 5.2 | 12.2 | 0.00 | 0.01 | 0.01 | 60 | 1019.6 |
| 20260905201708 | 68 | 280 | 6.1 | 12.2 | 0.00 | 0.01 | 0.01 | 61 | 1019.3 |
| 20260905201601 | 67 | 281 | 4.3 | 12.2 | 0.00 | 0.01 | 0.01 | 60 | 1019.6 |
| 20260905201207 | 68 | 284 | 4.3 | 11.3 | 0.00 | 0.01 | 0.01 | 60 | 1019.3 |
| 20260905201030 | 67 | 252 | 3.5 | 12.2 | 0.00 | 0.01 | 0.01 | 58 | 1019.5 |
| 20260905200705 | 68 | 275 | 5.2 | 11.3 | 0.00 | 0.01 | 0.01 | 58 | 1019.2 |
| 20260905200531 | 68 | 273 | 5.2 | 12.2 | 0.00 | 0.01 | 0.01 | 57 | 1019.4 |
| 20260905200204 | 68 | 281 | 4.3 | 11.3 | 0.00 | 0.01 | 0.01 | 57 | 1019.2 |
| 20260905200058 | 68 | 257 | 6.1 | 12.2 | 0.00 | 0.01 | 0.01 | 56 | 1019.3 |
| 20260905195701 | 69 | 292 | 5.2 | 11.3 | 0.00 | 0.01 | 0.01 | 56 | 1019.1 |
| 20260905195529 | 68 | 296 | 4.3 | 11.3 | 0.00 | 0.01 | 0.01 | 55 | 1019.3 |
| 20260905195031 | 68 | 288 | 4.3 | 12.2 | 0.00 | 0.01 | 0.01 | 56 | 1019.3 |
| 20260905194658 | 69 | 292 | 7.0 | 12.2 | 0.00 | 0.01 | 0.01 | 57 | 1019.1 |
| 20260905194550 | 68 | 278 | 7.0 | 12.2 | 0.00 | 0.01 | 0.01 | 57 | 1019.3 |
| 20260905194029 | 69 | 273 | 5.2 | 13.0 | 0.00 | 0.01 | 0.01 | 57 | 1019.1 |
| 20260905193655 | 69 | 275 | 7.0 | 13.0 | 0.00 | 0.01 | 0.01 | 57 | 1019.0 |
| 20260905193528 | 69 | 299 | 6.1 | 13.0 | 0.00 | 0.01 | 0.01 | 56 | 1019.2 |
| 20260905193049 | 69 | 277 | 7.0 | 12.2 | 0.00 | 0.01 | 0.01 | 56 | 1019.2 |
| 20260905192652 | 69 | 275 | 7.8 | 12.2 | 0.00 | 0.01 | 0.01 | 56 | 1018.8 |
| 20260905192529 | 69 | 269 | 6.1 | 11.3 | 0.00 | 0.01 | 0.01 | 55 | 1019.1 |
| 20260905192028 | 69 | 263 | 6.1 | 11.3 | 0.00 | 0.01 | 0.01 | 54 | 1019.0 |
| 20260905191649 | 69 | 294 | 6.1 | 13.0 | 0.00 | 0.01 | 0.01 | 55 | 1018.8 |
| 20260905191557 | 69 | 268 | 6.1 | 14.8 | 0.00 | 0.01 | 0.01 | 54 | 1019.1 |
| 20260905191029 | 69 | 292 | 7.8 | 14.8 | 0.00 | 0.01 | 0.01 | 54 | 1019.1 |
| 20260905190645 | 69 | 289 | 7.8 | 13.0 | 0.00 | 0.01 | 0.01 | 55 | 1018.8 |
| 20260905190529 | 69 | 265 | 7.0 | 13.9 | 0.00 | 0.01 | 0.01 | 55 | 1019.0 |
| 20260905190144 | 69 | 273 | 7.0 | 12.2 | 0.00 | 0.01 | 0.01 | 56 | 1018.8 |
| 20260905190058 | 69 | 242 | 7.0 | 12.2 | 0.00 | 0.01 | 0.01 | 56 | 1018.9 |
| 20260905185643 | 69 | 252 | 6.1 | 12.2 | 0.00 | 0.01 | 0.01 | 57 | 1018.7 |
| 20260905185529 | 69 | 256 | 5.2 | 12.2 | 0.00 | 0.01 | 0.01 | 56 | 1019.0 |
| 20260905185141 | 69 | 274 | 5.2 | 11.3 | 0.00 | 0.01 | 0.01 | 55 | 1018.7 |
| 20260905185029 | 69 | 286 | 5.2 | 11.3 | 0.00 | 0.01 | 0.01 | 55 | 1018.9 |
| 20260905184639 | 69 | 311 | 4.3 | 8.7 | 0.00 | 0.01 | 0.01 | 55 | 1018.6 |
| 20260905184600 | 69 | 288 | 4.3 | 9.6 | 0.00 | 0.01 | 0.01 | 55 | 1018.8 |
| 20260905184137 | 69 | 249 | 4.3 | 8.7 | 0.00 | 0.01 | 0.01 | 55 | 1018.5 |
| 20260905184029 | 69 | 248 | 4.3 | 9.6 | 0.00 | 0.01 | 0.01 | 54 | 1018.7 |
| 20260905183635 | 70 | 244 | 4.3 | 8.7 | 0.00 | 0.01 | 0.01 | 54 | 1018.4 |
| 20260905183528 | 69 | 250 | 3.5 | 9.6 | 0.00 | 0.01 | 0.01 | 54 | 1018.7 |
| 20260905183134 | 70 | 257 | 3.5 | 9.6 | 0.00 | 0.01 | 0.01 | 54 | 1018.5 |
| 20260905183057 | 69 | 242 | 2.6 | 9.6 | 0.00 | 0.01 | 0.01 | 54 | 1018.7 |
| 20260905182633 | 70 | 238 | 3.5 | 9.6 | 0.00 | 0.01 | 0.01 | 54 | 1018.4 |
| 20260905182528 | 69 | 284 | 4.3 | 10.4 | 0.00 | 0.01 | 0.01 | 53 | 1018.6 |
| 20260905182134 | 70 | 245 | 4.3 | 10.4 | 0.00 | 0.01 | 0.01 | 54 | 1018.4 |
| 20260905182029 | 70 | 274 | 4.3 | 10.4 | 0.00 | 0.01 | 0.01 | 53 | 1018.6 |
| 20260905181629 | 70 | 261 | 5.2 | 10.4 | 0.00 | 0.01 | 0.01 | 53 | 1018.4 |
| 20260905181610 | 70 | 225 | 4.3 | 10.4 | 0.00 | 0.01 | 0.01 | 53 | 1018.6 |
| 20260905181128 | 71 | 248 | 5.2 | 11.3 | 0.00 | 0.01 | 0.01 | 52 | 1018.3 |
| 20260905181026 | 70 | 261 | 5.2 | 11.3 | 0.00 | 0.01 | 0.01 | 52 | 1018.5 |
| 20260905180626 | 71 | 283 | 3.5 | 11.3 | 0.00 | 0.01 | 0.01 | 52 | 1018.2 |
| 20260905180526 | 70 | 247 | 4.3 | 11.3 | 0.00 | 0.01 | 0.01 | 51 | 1018.5 |
| 20260905180055 | 70 | 291 | 5.2 | 12.2 | 0.00 | 0.01 | 0.01 | 51 | 1018.5 |
| 20260905175623 | 71 | 261 | 7.0 | 12.2 | 0.00 | 0.01 | 0.01 | 51 | 1018.2 |
| 20260905175529 | 71 | 264 | 6.1 | 13.9 | 0.00 | 0.01 | 0.01 | 51 | 1018.4 |
| 20260905175121 | 71 | 287 | 6.1 | 13.9 | 0.00 | 0.01 | 0.01 | 51 | 1018.2 |
| 20260905175030 | 71 | 285 | 6.1 | 13.9 | 0.00 | 0.01 | 0.01 | 50 | 1018.3 |
| 20260905174554 | 71 | 302 | 6.1 | 13.0 | 0.00 | 0.01 | 0.01 | 50 | 1018.2 |
| 20260905174118 | 71 | 277 | 7.8 | 13.0 | 0.00 | 0.01 | 0.01 | 50 | 1017.9 |
| 20260905174030 | 71 | 284 | 6.1 | 13.0 | 0.00 | 0.01 | 0.01 | 49 | 1018.2 |
| 20260905173529 | 71 | 242 | 4.3 | 13.9 | 0.00 | 0.01 | 0.01 | 49 | 1018.1 |
| 20260905173115 | 72 | 259 | 7.0 | 13.9 | 0.00 | 0.01 | 0.01 | 49 | 1017.9 |
| 20260905173049 | 72 | 248 | 5.2 | 13.9 | 0.00 | 0.01 | 0.01 | 48 | 1018.0 |
| 20260905172614 | 72 | 256 | 7.8 | 13.9 | 0.00 | 0.01 | 0.01 | 49 | 1017.7 |
| 20260905172528 | 72 | 237 | 5.2 | 13.9 | 0.00 | 0.01 | 0.01 | 48 | 1018.0 |
| 20260905172115 | 73 | 244 | 7.0 | 13.9 | 0.00 | 0.01 | 0.01 | 48 | 1017.6 |
| 20260905172029 | 72 | 244 | 7.8 | 13.9 | 0.00 | 0.01 | 0.01 | 48 | 1017.9 |
| 20260905171548 | 72 | 258 | 7.0 | 14.8 | 0.00 | 0.01 | 0.01 | 47 | 1017.8 |
| 20260905171109 | 73 | 254 | 6.1 | 14.8 | 0.00 | 0.01 | 0.01 | 47 | 1017.4 |
| 20260905171032 | 73 | 240 | 6.1 | 17.4 | 0.00 | 0.01 | 0.01 | 47 | 1017.7 |
| 20260905170607 | 73 | 246 | 7.0 | 13.0 | 0.00 | 0.01 | 0.01 | 47 | 1017.4 |
| 20260905170528 | 73 | 290 | 7.0 | 17.4 | 0.00 | 0.01 | 0.01 | 46 | 1017.7 |
| 20260905170105 | 73 | 284 | 7.8 | 13.9 | 0.00 | 0.01 | 0.01 | 47 | 1017.3 |
| 20260905170101 | 73 | 278 | 6.1 | 13.9 | 0.00 | 0.01 | 0.01 | 46 | 1017.6 |
| 20260905165604 | 74 | 280 | 7.8 | 13.9 | 0.00 | 0.01 | 0.01 | 46 | 1017.2 |
| 20260905165531 | 73 | 286 | 7.8 | 13.9 | 0.00 | 0.01 | 0.01 | 45 | 1017.6 |
| 20260905165102 | 74 | 238 | 7.0 | 11.3 | 0.00 | 0.01 | 0.01 | 46 | 1017.3 |
| 20260905165030 | 73 | 254 | 6.1 | 12.2 | 0.00 | 0.01 | 0.01 | 45 | 1017.5 |
| 20260905164600 | 74 | 235 | 7.0 | 12.2 | 0.00 | 0.01 | 0.01 | 46 | 1017.2 |
| 20260905164555 | 74 | 246 | 6.1 | 12.2 | 0.00 | 0.01 | 0.01 | 45 | 1017.5 |
| 20260905164059 | 74 | 190 | 7.0 | 12.2 | 0.00 | 0.01 | 0.01 | 46 | 1017.2 |
| 20260905164029 | 74 | 254 | 6.1 | 12.2 | 0.00 | 0.01 | 0.01 | 46 | 1017.5 |
| 20260905163557 | 74 | 258 | 5.2 | 10.4 | 0.00 | 0.01 | 0.01 | 47 | 1017.2 |
| 20260905163527 | 74 | 255 | 4.3 | 10.4 | 0.00 | 0.01 | 0.01 | 46 | 1017.5 |
| 20260905163056 | 74 | 229 | 5.2 | 10.4 | 0.00 | 0.01 | 0.01 | 49 | 1017.1 |
| 20260905163051 | 74 | 304 | 5.2 | 10.4 | 0.00 | 0.01 | 0.01 | 49 | 1017.4 |
| 20260905162554 | 74 | 261 | 2.6 | 5.2 | 0.00 | 0.01 | 0.01 | 55 | 1017.1 |
| 20260905162529 | 74 | 292 | 2.6 | 6.1 | 0.00 | 0.01 | 0.01 | 55 | 1017.4 |
| 20260905162052 | 74 | 271 | 2.6 | 6.1 | 0.00 | 0.01 | 0.01 | 56 | 1017.1 |
| 20260905162028 | 74 | 246 | 2.6 | 6.1 | 0.00 | 0.01 | 0.01 | 55 | 1017.4 |
| 20260905161551 | 74 | 226 | 2.6 | 6.1 | 0.00 | 0.01 | 0.01 | 57 | 1017.1 |
| 20260905161547 | 73 | 229 | 2.6 | 7.0 | 0.00 | 0.01 | 0.01 | 56 | 1017.4 |
| 20260905161049 | 74 | 180 | 2.6 | 7.0 | 0.00 | 0.01 | 0.01 | 57 | 1017.1 |
| 20260905161028 | 73 | 232 | 1.7 | 7.0 | 0.00 | 0.01 | 0.01 | 56 | 1017.4 |
| 20260905160547 | 74 | 199 | 3.5 | 7.0 | 0.00 | 0.01 | 0.01 | 56 | 1017.0 |
| 20260905160530 | 73 | 223 | 3.5 | 7.0 | 0.00 | 0.01 | 0.01 | 55 | 1017.4 |
| 20260905160130 | 73 | 238 | 2.6 | 6.1 | 0.00 | 0.01 | 0.01 | 55 | 1017.4 |
| 20260905160046 | 74 | 232 | 3.5 | 6.1 | 0.00 | 0.01 | 0.01 | 55 | 1017.0 |
| 20260905155545 | 74 | 224 | 3.5 | 6.1 | 0.00 | 0.01 | 0.01 | 55 | 1017.0 |
| 20260905155528 | 74 | 198 | 2.6 | 6.1 | 0.00 | 0.01 | 0.01 | 55 | 1017.4 |
| 20260905155042 | 74 | 226 | 2.6 | 6.1 | 0.00 | 0.01 | 0.01 | 56 | 1017.0 |
| 20260905155028 | 74 | 221 | 1.7 | 6.1 | 0.00 | 0.01 | 0.01 | 55 | 1017.3 |
| 20260905154553 | 74 | 246 | 2.6 | 6.1 | 0.00 | 0.01 | 0.01 | 56 | 1017.3 |
| 20260905154541 | 74 | 251 | 3.5 | 6.1 | 0.00 | 0.01 | 0.01 | 56 | 1017.0 |
| 20260905154040 | 74 | 252 | 3.5 | 6.1 | 0.00 | 0.01 | 0.01 | 57 | 1017.1 |
| 20260905154029 | 74 | 262 | 2.6 | 6.1 | 0.00 | 0.01 | 0.01 | 56 | 1017.4 |
| 20260905153538 | 74 | 182 | 2.6 | 6.1 | 0.00 | 0.01 | 0.01 | 56 | 1016.9 |
| 20260905153528 | 74 | 212 | 1.7 | 4.3 | 0.00 | 0.01 | 0.01 | 56 | 1017.3 |
| 20260905153102 | 74 | 244 | 1.7 | 7.0 | 0.00 | 0.01 | 0.01 | 56 | 1017.3 |
| 20260905153040 | 74 | 246 | 2.6 | 6.1 | 0.00 | 0.01 | 0.01 | 56 | 1016.9 |
| 20260905152534 | 74 | 219 | 2.6 | 7.0 | 0.00 | 0.01 | 0.01 | 55 | 1017.0 |
| 20260905152530 | 74 | 225 | 2.6 | 7.0 | 0.00 | 0.01 | 0.01 | 55 | 1017.4 |
| 20260905152033 | 74 | 259 | 3.5 | 7.0 | 0.00 | 0.01 | 0.01 | 54 | 1017.0 |
| 20260905152029 | 74 | 259 | 3.5 | 7.0 | 0.00 | 0.01 | 0.01 | 53 | 1017.3 |
| 20260905151604 | 74 | 210 | 2.6 | 7.8 | 0.00 | 0.01 | 0.01 | 53 | 1017.3 |
| 20260905151531 | 74 | 210 | 3.5 | 7.0 | 0.00 | 0.01 | 0.01 | 54 | 1016.9 |
| 20260905151030 | 75 | 254 | 2.6 | 7.8 | 0.00 | 0.01 | 0.01 | 54 | 1017.0 |
| 20260905151027 | 74 | 261 | 2.6 | 8.7 | 0.00 | 0.01 | 0.01 | 53 | 1017.3 |
| 20260905150530 | 74 | 222 | 3.5 | 8.7 | 0.00 | 0.01 | 0.01 | 53 | 1017.4 |
| 20260905150055 | 74 | 240 | 1.7 | 9.6 | 0.00 | 0.01 | 0.01 | 53 | 1017.3 |
| 20260905145530 | 75 | 266 | 3.5 | 9.6 | 0.00 | 0.01 | 0.01 | 52 | 1017.3 |
| 20260905145525 | 75 | 275 | 3.5 | 9.6 | 0.00 | 0.01 | 0.01 | 53 | 1017.0 |
| 20260905145030 | 75 | 261 | 5.2 | 9.6 | 0.00 | 0.01 | 0.01 | 51 | 1017.4 |
| 20260905145022 | 76 | 266 | 6.1 | 9.6 | 0.00 | 0.01 | 0.01 | 52 | 1017.1 |
| 20260905144553 | 76 | 306 | 4.3 | 9.6 | 0.00 | 0.01 | 0.01 | 52 | 1017.5 |
| 20260905144522 | 76 | 244 | 4.3 | 8.7 | 0.00 | 0.01 | 0.01 | 52 | 1017.1 |
| 20260905144031 | 76 | 264 | 5.2 | 11.3 | 0.00 | 0.01 | 0.01 | 51 | 1017.4 |
| 20260905144014 | 77 | 271 | 5.2 | 10.4 | 0.00 | 0.01 | 0.01 | 51 | 1017.0 |
| 20260905143531 | 77 | 240 | 4.3 | 11.3 | 0.00 | 0.01 | 0.01 | 51 | 1017.4 |
| 20260905143514 | 77 | 286 | 5.2 | 11.3 | 0.00 | 0.01 | 0.01 | 52 | 1017.0 |
| 20260905143050 | 78 | 227 | 5.2 | 12.2 | 0.00 | 0.01 | 0.01 | 50 | 1017.4 |
| 20260905143011 | 78 | 260 | 5.2 | 12.2 | 0.00 | 0.01 | 0.01 | 50 | 1017.1 |
| 20260905142530 | 77 | 296 | 4.3 | 12.2 | 0.00 | 0.01 | 0.01 | 52 | 1017.4 |
| 20260905142513 | 78 | 289 | 4.3 | 12.2 | 0.00 | 0.01 | 0.01 | 52 | 1017.0 |
| 20260905142028 | 77 | 267 | 7.0 | 10.4 | 0.00 | 0.01 | 0.01 | 53 | 1017.4 |
| 20260905142008 | 77 | 300 | 7.8 | 10.4 | 0.00 | 0.01 | 0.01 | 53 | 1017.0 |
| 20260905141557 | 76 | 259 | 4.3 | 8.7 | 0.00 | 0.01 | 0.01 | 55 | 1017.3 |
| 20260905141027 | 74 | 235 | 3.5 | 8.7 | 0.00 | 0.01 | 0.01 | 59 | 1017.4 |
| 20260905141005 | 75 | 277 | 2.6 | 8.7 | 0.00 | 0.01 | 0.01 | 57 | 1017.1 |
| 20260905140532 | 74 | 297 | 3.5 | 8.7 | 0.00 | 0.01 | 0.01 | 56 | 1017.5 |
| 20260905140053 | 73 | 306 | 3.5 | 7.0 | 0.00 | 0.01 | 0.01 | 58 | 1017.4 |
| 20260905140002 | 74 | 286 | 3.5 | 7.0 | 0.00 | 0.01 | 0.01 | 59 | 1017.1 |
| 20260905135528 | 73 | 279 | 3.5 | 10.4 | 0.00 | 0.01 | 0.01 | 62 | 1017.4 |
| 20260905135500 | 74 | 294 | 3.5 | 7.8 | 0.00 | 0.01 | 0.01 | 63 | 1017.1 |
| 20260905135028 | 73 | 219 | 3.5 | 10.4 | 0.00 | 0.01 | 0.01 | 59 | 1017.4 |
| 20260905134959 | 74 | 241 | 4.3 | 8.7 | 0.00 | 0.01 | 0.01 | 60 | 1017.1 |
| 20260905134556 | 74 | 230 | 5.2 | 10.4 | 0.00 | 0.01 | 0.01 | 58 | 1017.5 |
| 20260905134029 | 74 | 273 | 5.2 | 10.4 | 0.00 | 0.01 | 0.01 | 60 | 1017.6 |
| 20260905133955 | 74 | 273 | 5.2 | 10.4 | 0.00 | 0.01 | 0.01 | 61 | 1017.3 |
| 20260905133529 | 74 | 254 | 5.2 | 11.3 | 0.00 | 0.01 | 0.01 | 61 | 1017.6 |
| 20260905133048 | 73 | 285 | 7.0 | 12.2 | 0.01 | 0.01 | 0.01 | 61 | 1017.7 |
| 20260905132532 | 73 | 178 | 4.3 | 12.2 | 0.01 | 0.01 | 0.01 | 65 | 1017.8 |
| 20260905132455 | 73 | 276 | 3.5 | 12.2 | 0.01 | 0.01 | 0.01 | 66 | 1017.4 |
| 20260905132029 | 71 | 229 | 4.3 | 10.4 | 0.01 | 0.01 | 0.01 | 68 | 1017.8 |
| 20260905132002 | 72 | 242 | 5.2 | 9.6 | 0.01 | 0.01 | 0.01 | 69 | 1017.5 |
| 20260905131548 | 70 | 305 | 6.1 | 10.4 | 0.01 | 0.01 | 0.01 | 72 | 1017.8 |
| 20260905131447 | 70 | 314 | 6.1 | 9.6 | 0.01 | 0.01 | 0.01 | 71 | 1017.5 |
| 20260905131028 | 69 | 282 | 3.5 | 10.4 | 0.01 | 0.01 | 0.01 | 71 | 1017.8 |
| 20260905130946 | 70 | 287 | 3.5 | 10.4 | 0.01 | 0.01 | 0.01 | 70 | 1017.4 |
| 20260905130528 | 69 | 309 | 5.2 | 11.3 | 0.01 | 0.01 | 0.01 | 70 | 1018.0 |
| 20260905130054 | 69 | 296 | 6.1 | 12.2 | 0.01 | 0.01 | 0.01 | 71 | 1017.9 |
| 20260905125943 | 69 | 273 | 7.8 | 12.2 | 0.01 | 0.01 | 0.01 | 72 | 1017.6 |
| 20260905125529 | 69 | 285 | 6.1 | 13.9 | 0.01 | 0.01 | 0.01 | 73 | 1017.8 |
| 20260905125441 | 69 | 302 | 6.1 | 13.0 | 0.01 | 0.01 | 0.01 | 74 | 1017.5 |
| 20260905125028 | 69 | 255 | 4.3 | 14.8 | 0.01 | 0.01 | 0.01 | 74 | 1017.6 |
| 20260905124940 | 69 | 276 | 4.3 | 14.8 | 0.01 | 0.01 | 0.01 | 73 | 1017.2 |
| 20260905124555 | 70 | 277 | 8.7 | 14.8 | 0.01 | 0.01 | 0.01 | 69 | 1017.7 |
| 20260905124438 | 71 | 294 | 9.6 | 14.8 | 0.01 | 0.01 | 0.01 | 69 | 1017.4 |
| 20260905124034 | 72 | 269 | 7.0 | 15.6 | 0.01 | 0.01 | 0.01 | 68 | 1017.9 |
| 20260905123529 | 73 | 271 | 8.7 | 15.6 | 0.00 | 0.00 | 0.00 | 63 | 1017.5 |
| 20260905123434 | 74 | 284 | 8.7 | 15.6 | 0.00 | 0.00 | 0.00 | 62 | 1017.2 |
| 20260905123049 | 76 | 294 | 7.8 | 16.5 | 0.00 | 0.00 | 0.00 | 58 | 1017.5 |
| 20260905122933 | 77 | 285 | 7.8 | 16.5 | 0.00 | 0.00 | 0.00 | 57 | 1017.1 |
| 20260905122530 | 78 | 299 | 7.8 | 16.5 | 0.00 | 0.00 | 0.00 | 53 | 1017.6 |
| 20260905122436 | 79 | 254 | 8.7 | 16.5 | 0.00 | 0.00 | 0.00 | 54 | 1017.2 |
| 20260905122029 | 80 | 279 | 6.1 | 11.3 | 0.00 | 0.00 | 0.00 | 52 | 1017.5 |
| 20260905121943 | 80 | 280 | 6.1 | 10.4 | 0.00 | 0.00 | 0.00 | 50 | 1017.1 |
| 20260905121556 | 80 | 286 | 6.1 | 11.3 | 0.00 | 0.00 | 0.00 | 46 | 1017.3 |
| 20260905121428 | 81 | 246 | 7.0 | 9.6 | 0.00 | 0.00 | 0.00 | 48 | 1017.1 |
| 20260905121036 | 81 | 275 | 4.3 | 7.8 | 0.00 | 0.00 | 0.00 | 51 | 1017.4 |
| 20260905120927 | 81 | 296 | 4.3 | 7.8 | 0.00 | 0.00 | 0.00 | 51 | 1017.1 |
| 20260905120530 | 81 | 295 | 4.3 | 7.8 | 0.00 | 0.00 | 0.00 | 51 | 1017.3 |
| 20260905120108 | 81 | 299 | 3.5 | 7.0 | 0.00 | 0.00 | 0.00 | 48 | 1017.3 |
| 20260905115923 | 82 | 329 | 3.5 | 7.0 | 0.00 | 0.00 | 0.00 | 50 | 1016.9 |
| 20260905115529 | 81 | 278 | 2.6 | 6.1 | 0.00 | 0.00 | 0.00 | 49 | 1017.1 |
| 20260905115422 | 82 | 284 | 2.6 | 5.2 | 0.00 | 0.00 | 0.00 | 51 | 1016.8 |
| 20260905115030 | 82 | 305 | 2.6 | 6.1 | 0.00 | 0.00 | 0.00 | 50 | 1017.1 |
| 20260905114921 | 82 | 304 | 1.7 | 6.1 | 0.00 | 0.00 | 0.00 | 51 | 1016.8 |
| 20260905114601 | 82 | 281 | 2.6 | 7.0 | 0.00 | 0.00 | 0.00 | 51 | 1017.1 |
| 20260905114419 | 83 | 295 | 2.6 | 7.0 | 0.00 | 0.00 | 0.00 | 51 | 1016.8 |
| 20260905114029 | 82 | 315 | 3.5 | 7.0 | 0.00 | 0.00 | 0.00 | 49 | 1017.2 |
| 20260905113918 | 83 | 283 | 4.3 | 7.0 | 0.00 | 0.00 | 0.00 | 50 | 1016.9 |
| 20260905113529 | 82 | 227 | 2.6 | 7.0 | 0.00 | 0.00 | 0.00 | 48 | 1017.1 |
| 20260905113419 | 83 | 304 | 3.5 | 7.0 | 0.00 | 0.00 | 0.00 | 48 | 1016.7 |
| 20260905113056 | 83 | 321 | 2.6 | 7.0 | 0.00 | 0.00 | 0.00 | 51 | 1017.0 |
| 20260905112916 | 83 | 344 | 3.5 | 7.0 | 0.00 | 0.00 | 0.00 | 47 | 1016.7 |
| 20260905112530 | 83 | 0 | 1.7 | 5.2 | 0.00 | 0.00 | 0.00 | 46 | 1016.9 |
| 20260905112412 | 84 | 277 | 2.6 | 4.3 | 0.00 | 0.00 | 0.00 | 48 | 1016.6 |
| 20260905112029 | 84 | 282 | 1.7 | 5.2 | 0.00 | 0.00 | 0.00 | 45 | 1016.9 |
| 20260905111609 | 85 | 223 | 0.0 | 6.1 | 0.00 | 0.00 | 0.00 | 46 | 1017.0 |
| 20260905111409 | 85 | 288 | 0.0 | 6.1 | 0.00 | 0.00 | 0.00 | 48 | 1016.7 |
| 20260905111030 | 85 | 348 | 1.7 | 7.8 | 0.00 | 0.00 | 0.00 | 44 | 1017.1 |
| 20260905110908 | 85 | 14 | 2.6 | 7.0 | 0.00 | 0.00 | 0.00 | 48 | 1016.7 |
| 20260905110533 | 84 | 76 | 0.9 | 7.8 | 0.00 | 0.00 | 0.00 | 51 | 1017.1 |
| 20260905110406 | 83 | 83 | 2.6 | 7.0 | 0.00 | 0.00 | 0.00 | 51 | 1016.9 |
| 20260905110057 | 82 | 30 | 2.6 | 7.8 | 0.00 | 0.00 | 0.00 | 50 | 1017.2 |
| 20260905105908 | 82 | 46 | 2.6 | 7.0 | 0.00 | 0.00 | 0.00 | 51 | 1017.0 |
| 20260905105530 | 81 | 336 | 2.6 | 7.0 | 0.00 | 0.00 | 0.00 | 55 | 1017.4 |
| 20260905105403 | 81 | 24 | 3.5 | 7.0 | 0.00 | 0.00 | 0.00 | 57 | 1017.1 |
| 20260905105030 | 80 | 40 | 2.6 | 7.8 | 0.00 | 0.00 | 0.00 | 54 | 1017.4 |
| 20260905104901 | 80 | 355 | 1.7 | 7.8 | 0.00 | 0.00 | 0.00 | 57 | 1017.0 |
| 20260905104548 | 78 | 57 | 2.6 | 7.8 | 0.00 | 0.00 | 0.00 | 58 | 1017.4 |
| 20260905104359 | 78 | 332 | 3.5 | 7.8 | 0.00 | 0.00 | 0.00 | 58 | 1017.0 |
| 20260905104030 | 78 | 13 | 3.5 | 7.8 | 0.00 | 0.00 | 0.00 | 57 | 1017.3 |
| 20260905103858 | 78 | 49 | 3.5 | 7.8 | 0.00 | 0.00 | 0.00 | 58 | 1017.0 |
| 20260905103530 | 77 | 51 | 1.7 | 7.8 | 0.00 | 0.00 | 0.00 | 58 | 1017.5 |
| 20260905103357 | 78 | 343 | 2.6 | 7.8 | 0.00 | 0.00 | 0.00 | 60 | 1017.2 |
| 20260905103058 | 77 | 9 | 2.6 | 7.8 | 0.00 | 0.00 | 0.00 | 58 | 1017.6 |
| 20260905102854 | 77 | 5 | 3.5 | 7.8 | 0.00 | 0.00 | 0.00 | 59 | 1017.2 |
| 20260905102526 | 76 | 23 | 4.3 | 7.8 | 0.00 | 0.00 | 0.00 | 58 | 1017.4 |
| 20260905102353 | 77 | 352 | 3.5 | 7.8 | 0.00 | 0.00 | 0.00 | 59 | 1017.1 |
| 20260905102030 | 75 | 355 | 3.5 | 7.8 | 0.00 | 0.00 | 0.00 | 60 | 1017.5 |
| 20260905101852 | 76 | 28 | 3.5 | 7.8 | 0.00 | 0.00 | 0.00 | 60 | 1017.2 |
| 20260905101554 | 75 | 19 | 2.6 | 8.7 | 0.00 | 0.00 | 0.00 | 61 | 1017.5 |
| 20260905101350 | 75 | 48 | 2.6 | 7.8 | 0.00 | 0.00 | 0.00 | 62 | 1017.3 |
| 20260905101029 | 75 | 5 | 2.6 | 8.7 | 0.00 | 0.00 | 0.00 | 62 | 1017.8 |
| 20260905100848 | 75 | 9 | 3.5 | 7.8 | 0.00 | 0.00 | 0.00 | 62 | 1017.6 |
| 20260905100530 | 74 | 11 | 3.5 | 7.8 | 0.00 | 0.00 | 0.00 | 61 | 1018.0 |
| 20260905100350 | 75 | 0 | 3.5 | 7.0 | 0.00 | 0.00 | 0.00 | 61 | 1017.9 |
| 20260905100055 | 74 | 26 | 2.6 | 7.8 | 0.00 | 0.00 | 0.00 | 62 | 1018.2 |
| 20260905095846 | 75 | 40 | 2.6 | 7.8 | 0.00 | 0.00 | 0.00 | 62 | 1017.9 |
| 20260905095529 | 74 | 352 | 2.6 | 9.6 | 0.00 | 0.00 | 0.00 | 63 | 1018.1 |
| 20260905095344 | 74 | 65 | 2.6 | 8.7 | 0.00 | 0.00 | 0.00 | 63 | 1017.6 |
| 20260905095029 | 74 | 312 | 3.5 | 9.6 | 0.00 | 0.00 | 0.00 | 61 | 1017.9 |
| 20260905094551 | 74 | 36 | 6.1 | 9.6 | 0.00 | 0.00 | 0.00 | 63 | 1017.9 |
| 20260905094340 | 75 | 0 | 3.5 | 9.6 | 0.00 | 0.00 | 0.00 | 63 | 1017.5 |
| 20260905094029 | 75 | 21 | 1.7 | 7.8 | 0.00 | 0.00 | 0.00 | 62 | 1017.8 |
| 20260905093838 | 75 | 48 | 1.7 | 7.8 | 0.00 | 0.00 | 0.00 | 62 | 1017.4 |
| 20260905093533 | 75 | 11 | 3.5 | 9.6 | 0.00 | 0.00 | 0.00 | 62 | 1017.6 |
| 20260905093336 | 75 | 341 | 4.3 | 8.7 | 0.00 | 0.00 | 0.00 | 62 | 1017.2 |
| 20260905093059 | 75 | 5 | 4.3 | 9.6 | 0.00 | 0.00 | 0.00 | 61 | 1017.4 |
| 20260905092529 | 75 | 28 | 3.5 | 9.6 | 0.00 | 0.00 | 0.00 | 63 | 1017.4 |
| 20260905092030 | 75 | 314 | 2.6 | 8.7 | 0.00 | 0.00 | 0.00 | 62 | 1017.3 |
| 20260905091619 | 76 | 355 | 4.3 | 8.7 | 0.00 | 0.00 | 0.00 | 60 | 1017.3 |
| 20260905091330 | 77 | 318 | 4.3 | 8.7 | 0.00 | 0.00 | 0.00 | 58 | 1017.0 |
| 20260905091033 | 77 | 338 | 2.6 | 11.3 | 0.00 | 0.00 | 0.00 | 55 | 1017.4 |
| 20260905090828 | 77 | 288 | 5.2 | 10.4 | 0.00 | 0.00 | 0.00 | 56 | 1017.0 |
| 20260905090530 | 78 | 337 | 6.1 | 11.3 | 0.00 | 0.00 | 0.00 | 53 | 1017.2 |
| 20260905090331 | 78 | 345 | 6.1 | 10.4 | 0.00 | 0.00 | 0.00 | 53 | 1016.9 |
| 20260905090113 | 78 | 312 | 4.3 | 9.6 | 0.00 | 0.00 | 0.00 | 54 | 1017.2 |
| 20260905085531 | 79 | 331 | 1.7 | 9.6 | 0.00 | 0.00 | 0.00 | 51 | 1016.7 |
| 20260905085031 | 79 | 22 | 5.2 | 9.6 | 0.00 | 0.00 | 0.00 | 50 | 1016.7 |
| 20260905084822 | 80 | 344 | 4.3 | 9.6 | 0.00 | 0.00 | 0.00 | 52 | 1016.3 |
| 20260905084559 | 80 | 325 | 4.3 | 9.6 | 0.00 | 0.00 | 0.00 | 51 | 1016.4 |
| 20260905084321 | 81 | 324 | 3.5 | 9.6 | 0.00 | 0.00 | 0.00 | 51 | 1016.1 |
| 20260905084030 | 80 | 325 | 4.3 | 12.2 | 0.00 | 0.00 | 0.00 | 52 | 1016.2 |
| 20260905083819 | 81 | 330 | 4.3 | 12.2 | 0.00 | 0.00 | 0.00 | 52 | 1015.7 |
| 20260905083531 | 80 | 277 | 5.2 | 12.2 | 0.00 | 0.00 | 0.00 | 52 | 1016.0 |
| 20260905083317 | 81 | 321 | 7.0 | 12.2 | 0.00 | 0.00 | 0.00 | 51 | 1015.7 |
| 20260905083058 | 80 | 319 | 7.8 | 12.2 | 0.00 | 0.00 | 0.00 | 51 | 1016.0 |
| 20260905082531 | 80 | 309 | 6.1 | 11.3 | 0.00 | 0.00 | 0.00 | 53 | 1015.7 |
| 20260905082314 | 81 | 321 | 7.0 | 11.3 | 0.00 | 0.00 | 0.00 | 53 | 1015.5 |
| 20260905082030 | 80 | 284 | 7.8 | 11.3 | 0.00 | 0.00 | 0.00 | 52 | 1015.9 |
| 20260905081814 | 81 | 281 | 7.0 | 11.3 | 0.00 | 0.00 | 0.00 | 53 | 1015.7 |
| 20260905081553 | 80 | 269 | 5.2 | 9.6 | 0.00 | 0.00 | 0.00 | 51 | 1015.7 |
| 20260905081311 | 81 | 292 | 5.2 | 9.6 | 0.00 | 0.00 | 0.00 | 52 | 1015.2 |
| 20260905081030 | 80 | 274 | 5.2 | 9.6 | 0.00 | 0.00 | 0.00 | 52 | 1015.4 |
| 20260905080809 | 80 | 288 | 4.3 | 9.6 | 0.00 | 0.00 | 0.00 | 54 | 1015.0 |
| 20260905080530 | 80 | 272 | 5.2 | 9.6 | 0.00 | 0.00 | 0.00 | 53 | 1015.3 |
| 20260905080312 | 80 | 278 | 5.2 | 8.7 | 0.00 | 0.00 | 0.00 | 54 | 1015.0 |
| 20260905080056 | 79 | 312 | 3.5 | 8.7 | 0.00 | 0.00 | 0.00 | 52 | 1015.1 |
| 20260905075806 | 80 | 283 | 3.5 | 8.7 | 0.00 | 0.00 | 0.00 | 53 | 1014.6 |
| 20260905075530 | 79 | 252 | 2.6 | 8.7 | 0.00 | 0.00 | 0.00 | 51 | 1014.9 |
| 20260905075306 | 80 | 270 | 6.1 | 8.7 | 0.00 | 0.00 | 0.00 | 53 | 1014.6 |
| 20260905075029 | 79 | 284 | 4.3 | 10.4 | 0.00 | 0.00 | 0.00 | 51 | 1014.8 |
| 20260905074803 | 80 | 269 | 4.3 | 10.4 | 0.00 | 0.00 | 0.00 | 52 | 1014.5 |
| 20260905074548 | 79 | 302 | 3.5 | 10.4 | 0.00 | 0.00 | 0.00 | 51 | 1014.6 |
| 20260905074302 | 80 | 225 | 4.3 | 10.4 | 0.00 | 0.00 | 0.00 | 51 | 1014.3 |
| 20260905074033 | 79 | 250 | 5.2 | 8.7 | 0.00 | 0.00 | 0.00 | 52 | 1014.5 |
| 20260905073800 | 79 | 279 | 5.2 | 8.7 | 0.00 | 0.00 | 0.00 | 52 | 1014.3 |
| 20260905073530 | 78 | 270 | 3.5 | 8.7 | 0.00 | 0.00 | 0.00 | 53 | 1014.6 |
| 20260905073259 | 78 | 268 | 3.5 | 7.8 | 0.00 | 0.00 | 0.00 | 54 | 1014.2 |
| 20260905073101 | 78 | 284 | 3.5 | 9.6 | 0.00 | 0.00 | 0.00 | 53 | 1014.4 |
| 20260905072757 | 78 | 257 | 4.3 | 10.4 | 0.00 | 0.00 | 0.00 | 54 | 1014.1 |
| 20260905072529 | 77 | 264 | 4.3 | 11.3 | 0.00 | 0.00 | 0.00 | 52 | 1014.3 |
| 20260905072255 | 77 | 257 | 6.1 | 10.4 | 0.00 | 0.00 | 0.00 | 53 | 1014.1 |
| 20260905072031 | 77 | 244 | 6.1 | 11.3 | 0.00 | 0.00 | 0.00 | 52 | 1014.3 |
| 20260905071754 | 77 | 238 | 6.1 | 8.7 | 0.00 | 0.00 | 0.00 | 54 | 1013.9 |
| 20260905071554 | 76 | 263 | 3.5 | 8.7 | 0.00 | 0.00 | 0.00 | 53 | 1014.2 |
| 20260905071252 | 76 | 189 | 3.5 | 9.6 | 0.00 | 0.00 | 0.00 | 55 | 1014.0 |
| 20260905071032 | 76 | 229 | 3.5 | 9.6 | 0.00 | 0.00 | 0.00 | 54 | 1014.1 |
| 20260905070751 | 76 | 246 | 4.3 | 9.6 | 0.00 | 0.00 | 0.00 | 55 | 1013.8 |
| 20260905070529 | 75 | 193 | 4.3 | 9.6 | 0.00 | 0.00 | 0.00 | 54 | 1014.1 |
| 20260905070253 | 75 | 184 | 4.3 | 8.7 | 0.00 | 0.00 | 0.00 | 55 | 1013.8 |
| 20260905070058 | 75 | 206 | 3.5 | 7.8 | 0.00 | 0.00 | 0.00 | 55 | 1013.9 |
| 20260905065533 | 74 | 232 | 4.3 | 7.8 | 0.00 | 0.00 | 0.00 | 55 | 1013.9 |
| 20260905065246 | 75 | 225 | 4.3 | 7.8 | 0.00 | 0.00 | 0.00 | 56 | 1013.7 |
| 20260905065029 | 74 | 217 | 5.2 | 7.8 | 0.00 | 0.00 | 0.00 | 56 | 1014.0 |
| 20260905064744 | 74 | 213 | 4.3 | 7.8 | 0.00 | 0.00 | 0.00 | 56 | 1013.8 |
| 20260905064546 | 73 | 228 | 3.5 | 7.8 | 0.00 | 0.00 | 0.00 | 57 | 1014.0 |
| 20260905064243 | 73 | 198 | 2.6 | 7.8 | 0.00 | 0.00 | 0.00 | 59 | 1013.8 |
| 20260905064030 | 72 | 172 | 3.5 | 7.8 | 0.00 | 0.00 | 0.00 | 58 | 1014.0 |
| 20260905063741 | 72 | 180 | 4.3 | 7.0 | 0.00 | 0.00 | 0.00 | 59 | 1013.7 |
| 20260905063526 | 71 | 226 | 2.6 | 7.8 | 0.00 | 0.00 | 0.00 | 59 | 1014.1 |
| 20260905063240 | 72 | 197 | 4.3 | 7.8 | 0.00 | 0.00 | 0.00 | 59 | 1013.9 |
| 20260905063058 | 71 | 212 | 3.5 | 8.7 | 0.00 | 0.00 | 0.00 | 59 | 1014.1 |
| 20260905062738 | 71 | 221 | 3.5 | 8.7 | 0.00 | 0.00 | 0.00 | 60 | 1013.6 |
| 20260905062528 | 71 | 194 | 3.5 | 9.6 | 0.00 | 0.00 | 0.00 | 59 | 1014.0 |
| 20260905062236 | 71 | 186 | 3.5 | 9.6 | 0.00 | 0.00 | 0.00 | 60 | 1013.8 |
| 20260905062033 | 70 | 197 | 4.3 | 9.6 | 0.00 | 0.00 | 0.00 | 60 | 1014.0 |
| 20260905061735 | 71 | 215 | 4.3 | 9.6 | 0.00 | 0.00 | 0.00 | 61 | 1013.7 |
| 20260905061613 | 70 | 186 | 3.5 | 7.8 | 0.00 | 0.00 | 0.00 | 60 | 1013.9 |
| 20260905061233 | 70 | 209 | 3.5 | 7.8 | 0.00 | 0.00 | 0.00 | 61 | 1013.6 |
| 20260905061030 | 70 | 214 | 3.5 | 7.8 | 0.00 | 0.00 | 0.00 | 61 | 1013.9 |
| 20260905060732 | 70 | 177 | 3.5 | 7.0 | 0.00 | 0.00 | 0.00 | 61 | 1013.6 |
| 20260905060528 | 70 | 205 | 2.6 | 7.0 | 0.00 | 0.00 | 0.00 | 61 | 1013.9 |
| 20260905060234 | 70 | 176 | 3.5 | 7.0 | 0.00 | 0.00 | 0.00 | 62 | 1013.7 |
| 20260905060101 | 69 | 196 | 2.6 | 7.8 | 0.00 | 0.00 | 0.00 | 61 | 1013.9 |
| 20260905055729 | 70 | 194 | 3.5 | 7.0 | 0.00 | 0.00 | 0.00 | 62 | 1013.7 |
| 20260905055530 | 69 | 196 | 2.6 | 7.8 | 0.00 | 0.00 | 0.00 | 62 | 1013.9 |
| 20260905055226 | 69 | 152 | 3.5 | 7.0 | 0.00 | 0.00 | 0.00 | 63 | 1013.6 |
| 20260905055030 | 69 | 180 | 3.5 | 7.0 | 0.00 | 0.00 | 0.00 | 62 | 1013.8 |
| 20260905054724 | 69 | 210 | 3.5 | 6.1 | 0.00 | 0.00 | 0.00 | 63 | 1013.6 |
| 20260905054551 | 69 | 163 | 2.6 | 6.1 | 0.00 | 0.00 | 0.00 | 63 | 1013.8 |
| 20260905054028 | 68 | 187 | 2.6 | 7.0 | 0.00 | 0.00 | 0.00 | 63 | 1013.8 |
| 20260905053526 | 68 | 166 | 2.6 | 7.0 | 0.00 | 0.00 | 0.00 | 64 | 1013.8 |
| 20260905053220 | 68 | 198 | 3.5 | 7.0 | 0.00 | 0.00 | 0.00 | 65 | 1013.5 |
| 20260905053056 | 68 | 196 | 2.6 | 6.1 | 0.00 | 0.00 | 0.00 | 64 | 1013.7 |
| 20260905052718 | 68 | 162 | 2.6 | 6.1 | 0.00 | 0.00 | 0.00 | 65 | 1013.4 |
| 20260905052530 | 68 | 188 | 3.5 | 6.1 | 0.00 | 0.00 | 0.00 | 65 | 1013.7 |
| 20260905052217 | 68 | 172 | 2.6 | 6.1 | 0.00 | 0.00 | 0.00 | 65 | 1013.4 |
| 20260905052030 | 67 | 174 | 2.6 | 6.1 | 0.00 | 0.00 | 0.00 | 65 | 1013.7 |
| 20260905051715 | 68 | 152 | 2.6 | 6.1 | 0.00 | 0.00 | 0.00 | 65 | 1013.4 |
| 20260905051554 | 67 | 165 | 2.6 | 6.1 | 0.00 | 0.00 | 0.00 | 65 | 1013.6 |
| 20260905051214 | 67 | 163 | 2.6 | 6.1 | 0.00 | 0.00 | 0.00 | 66 | 1013.4 |
| 20260905051029 | 67 | 175 | 2.6 | 5.2 | 0.00 | 0.00 | 0.00 | 66 | 1013.7 |
| 20260905050712 | 67 | 173 | 2.6 | 4.3 | 0.00 | 0.00 | 0.00 | 67 | 1013.4 |
| 20260905050527 | 66 | 184 | 1.7 | 5.2 | 0.00 | 0.00 | 0.00 | 66 | 1013.7 |
| 20260905050054 | 66 | 176 | 0.9 | 3.5 | 0.00 | 0.00 | 0.00 | 67 | 1013.6 |
| 20260905045533 | 65 | 157 | 0.9 | 3.5 | 0.00 | 0.00 | 0.00 | 68 | 1013.7 |
| 20260905045207 | 66 | 153 | 0.9 | 3.5 | 0.00 | 0.00 | 0.00 | 68 | 1013.5 |
| 20260905045029 | 65 | 170 | 0.9 | 3.5 | 0.00 | 0.00 | 0.00 | 68 | 1013.7 |
| 20260905044705 | 65 | 147 | 0.9 | 2.6 | 0.00 | 0.00 | 0.00 | 69 | 1013.4 |
| 20260905044553 | 65 | 0 | 0.9 | 1.7 | 0.00 | 0.00 | 0.00 | 68 | 1013.7 |
| 20260905044204 | 65 | 188 | 0.0 | 1.7 | 0.00 | 0.00 | 0.00 | 69 | 1013.5 |
| 20260905044027 | 65 | 0 | 0.0 | 2.6 | 0.00 | 0.00 | 0.00 | 69 | 1013.6 |
| 20260905043530 | 64 | 0 | 0.9 | 2.6 | 0.00 | 0.00 | 0.00 | 68 | 1013.8 |
| 20260905043205 | 65 | 215 | 1.7 | 2.6 | 0.00 | 0.00 | 0.00 | 69 | 1013.5 |
| 20260905043056 | 64 | 192 | 0.9 | 1.7 | 0.00 | 0.00 | 0.00 | 70 | 1013.8 |
| 20260905042700 | 64 | 180 | 0.9 | 1.7 | 0.00 | 0.00 | 0.00 | 70 | 1013.4 |
| 20260905042527 | 64 | 180 | 0.9 | 2.6 | 0.00 | 0.00 | 0.00 | 70 | 1013.7 |
| 20260905042153 | 64 | 198 | 0.9 | 2.6 | 0.00 | 0.00 | 0.00 | 71 | 1013.4 |
| 20260905042030 | 63 | 202 | 0.0 | 2.6 | 0.00 | 0.00 | 0.00 | 70 | 1013.6 |
| 20260905041600 | 63 | 166 | 0.0 | 1.7 | 0.00 | 0.00 | 0.00 | 70 | 1013.5 |
| 20260905041149 | 64 | 163 | 0.0 | 3.5 | 0.00 | 0.00 | 0.00 | 70 | 1013.1 |
| 20260905041033 | 63 | 0 | 0.0 | 3.5 | 0.00 | 0.00 | 0.00 | 70 | 1013.5 |
| 20260905040651 | 64 | 163 | 0.9 | 3.5 | 0.00 | 0.00 | 0.00 | 70 | 1013.3 |
| 20260905040529 | 63 | 163 | 0.9 | 3.5 | 0.00 | 0.00 | 0.00 | 70 | 1013.5 |
| 20260905040136 | 64 | 165 | 1.7 | 1.7 | 0.00 | 0.00 | 0.00 | 71 | 1013.1 |
| 20260905040051 | 63 | 164 | 0.9 | 2.6 | 0.00 | 0.00 | 0.00 | 70 | 1013.5 |
| 20260905035634 | 64 | 169 | 0.9 | 1.7 | 0.00 | 0.00 | 0.00 | 71 | 1013.2 |
| 20260905035530 | 63 | 169 | 0.9 | 1.7 | 0.00 | 0.00 | 0.00 | 70 | 1013.5 |
| 20260905035132 | 64 | 169 | 0.9 | 1.7 | 0.00 | 0.00 | 0.00 | 71 | 1013.2 |
| 20260905035030 | 63 | 169 | 0.9 | 1.7 | 0.00 | 0.00 | 0.00 | 70 | 1013.4 |
| 20260905034609 | 63 | 169 | 0.9 | 1.7 | 0.00 | 0.00 | 0.00 | 70 | 1013.5 |
| 20260905034125 | 63 | 165 | 0.9 | 1.7 | 0.00 | 0.00 | 0.00 | 71 | 1013.1 |
| 20260905034029 | 63 | 165 | 0.0 | 1.7 | 0.00 | 0.00 | 0.00 | 70 | 1013.4 |
| 20260905033623 | 63 | 165 | 0.9 | 1.7 | 0.00 | 0.00 | 0.00 | 71 | 1013.2 |
| 20260905033529 | 63 | 0 | 0.0 | 1.7 | 0.00 | 0.00 | 0.00 | 71 | 1013.4 |
| 20260905033057 | 63 | 165 | 0.0 | 1.7 | 0.00 | 0.00 | 0.00 | 70 | 1013.5 |
| 20260905032620 | 64 | 165 | 0.9 | 1.7 | 0.00 | 0.00 | 0.00 | 70 | 1013.1 |
| 20260905032529 | 63 | 165 | 0.0 | 1.7 | 0.00 | 0.00 | 0.00 | 70 | 1013.4 |
| 20260905032118 | 64 | 165 | 0.9 | 1.7 | 0.00 | 0.00 | 0.00 | 70 | 1013.1 |
| 20260905032029 | 63 | 165 | 0.0 | 1.7 | 0.00 | 0.00 | 0.00 | 69 | 1013.4 |
| 20260905031617 | 64 | 165 | 0.9 | 1.7 | 0.00 | 0.00 | 0.00 | 69 | 1013.1 |
| 20260905031554 | 64 | 0 | 0.9 | 1.7 | 0.00 | 0.00 | 0.00 | 69 | 1013.4 |
| 20260905031030 | 64 | 0 | 0.0 | 1.7 | 0.00 | 0.00 | 0.00 | 68 | 1013.5 |
| 20260905030614 | 65 | 165 | 0.9 | 3.5 | 0.00 | 0.00 | 0.00 | 69 | 1013.1 |
| 20260905030529 | 64 | 165 | 0.9 | 3.5 | 0.00 | 0.00 | 0.00 | 68 | 1013.3 |
| 20260905030047 | 64 | 165 | 0.9 | 3.5 | 0.00 | 0.00 | 0.00 | 67 | 1013.4 |
| 20260905025610 | 65 | 235 | 0.9 | 1.7 | 0.00 | 0.00 | 0.00 | 67 | 1013.1 |
| 20260905025529 | 65 | 235 | 0.9 | 1.7 | 0.00 | 0.00 | 0.00 | 67 | 1013.5 |
| 20260905025108 | 65 | 235 | 0.9 | 1.7 | 0.00 | 0.00 | 0.00 | 67 | 1013.1 |
| 20260905025030 | 65 | 235 | 0.0 | 1.7 | 0.00 | 0.00 | 0.00 | 66 | 1013.5 |
| 20260905024611 | 65 | 235 | 0.0 | 1.7 | 0.00 | 0.00 | 0.00 | 67 | 1013.1 |
| 20260905024547 | 65 | 235 | 0.0 | 2.6 | 0.00 | 0.00 | 0.00 | 66 | 1013.4 |
| 20260905024105 | 66 | 235 | 0.9 | 2.6 | 0.00 | 0.00 | 0.00 | 66 | 1013.1 |
| 20260905024029 | 65 | 235 | 0.0 | 2.6 | 0.00 | 0.00 | 0.00 | 65 | 1013.4 |
| 20260905023604 | 66 | 235 | 1.7 | 2.6 | 0.00 | 0.00 | 0.00 | 66 | 1013.1 |
| 20260905023529 | 66 | 235 | 0.9 | 2.6 | 0.00 | 0.00 | 0.00 | 65 | 1013.4 |
| 20260905023101 | 66 | 280 | 0.0 | 2.6 | 0.00 | 0.00 | 0.00 | 65 | 1013.1 |
| 20260905022601 | 67 | 196 | 0.9 | 3.5 | 0.00 | 0.00 | 0.00 | 65 | 1013.1 |
| 20260905022527 | 66 | 0 | 0.0 | 3.5 | 0.00 | 0.00 | 0.00 | 64 | 1013.4 |
| 20260905022059 | 67 | 209 | 0.9 | 3.5 | 0.00 | 0.00 | 0.00 | 64 | 1013.0 |
| 20260905022030 | 66 | 209 | 0.9 | 3.5 | 0.00 | 0.00 | 0.00 | 64 | 1013.3 |
| 20260905021556 | 67 | 0 | 0.9 | 2.6 | 0.00 | 0.00 | 0.00 | 64 | 1013.3 |
| 20260905021055 | 67 | 197 | 1.7 | 2.6 | 0.00 | 0.00 | 0.00 | 63 | 1013.0 |
| 20260905021030 | 67 | 197 | 0.9 | 2.6 | 0.00 | 0.00 | 0.00 | 63 | 1013.3 |
| 20260905020549 | 68 | 203 | 0.9 | 2.6 | 0.00 | 0.00 | 0.00 | 63 | 1013.0 |
| 20260905020529 | 67 | 0 | 0.9 | 3.5 | 0.00 | 0.00 | 0.00 | 62 | 1013.3 |
| 20260905020049 | 68 | 194 | 0.9 | 3.5 | 0.00 | 0.00 | 0.00 | 62 | 1013.3 |
| 20260905020047 | 68 | 198 | 0.9 | 3.5 | 0.00 | 0.00 | 0.00 | 62 | 1013.0 |
| 20260905015545 | 68 | 205 | 1.7 | 4.3 | 0.00 | 0.00 | 0.00 | 62 | 1013.0 |
| 20260905015531 | 68 | 205 | 0.9 | 4.3 | 0.00 | 0.00 | 0.00 | 61 | 1013.3 |
| 20260905015043 | 68 | 195 | 2.6 | 4.3 | 0.00 | 0.00 | 0.00 | 62 | 1013.0 |
| 20260905015030 | 68 | 195 | 1.7 | 4.3 | 0.00 | 0.00 | 0.00 | 62 | 1013.3 |
| 20260905014548 | 68 | 185 | 0.9 | 5.2 | 0.00 | 0.00 | 0.00 | 61 | 1013.2 |
| 20260905014035 | 69 | 178 | 1.7 | 6.1 | 0.00 | 0.00 | 0.00 | 62 | 1012.9 |
| 20260905014030 | 68 | 176 | 1.7 | 6.1 | 0.00 | 0.00 | 0.00 | 62 | 1013.1 |
| 20260905013534 | 69 | 164 | 2.6 | 6.1 | 0.00 | 0.00 | 0.00 | 62 | 1012.9 |
| 20260905013531 | 68 | 161 | 1.7 | 6.1 | 0.00 | 0.00 | 0.00 | 62 | 1013.2 |
| 20260905013056 | 68 | 171 | 1.7 | 6.1 | 0.00 | 0.00 | 0.00 | 62 | 1013.2 |
| 20260905013033 | 68 | 171 | 1.7 | 6.1 | 0.00 | 0.00 | 0.00 | 62 | 1012.9 |
| 20260905012531 | 69 | 179 | 2.6 | 7.0 | 0.00 | 0.00 | 0.00 | 63 | 1012.9 |
| 20260905012030 | 68 | 192 | 1.7 | 7.0 | 0.00 | 0.00 | 0.00 | 62 | 1013.1 |
| 20260905011556 | 68 | 138 | 2.6 | 6.1 | 0.00 | 0.00 | 0.00 | 62 | 1013.2 |
| 20260905011528 | 69 | 171 | 2.6 | 6.1 | 0.00 | 0.00 | 0.00 | 62 | 1012.9 |
| 20260905011030 | 68 | 165 | 1.7 | 6.1 | 0.00 | 0.00 | 0.00 | 62 | 1013.2 |
| 20260905011026 | 69 | 165 | 2.6 | 6.1 | 0.00 | 0.00 | 0.00 | 62 | 1012.9 |